Regional Weather Roundup
Issued by NWS Grand Forks, ND

Home | Current Version | Previous Version | Graphics & Text | Print | Product List | Glossary On
Versions: 1 2 3 4 5 6 7 8 9 10 11 12 13 14 15 16 17 18 19 20 21 22 23 24 25 26 27 28 29 30 31 32 33 34 35 36 37 38 39 40 41 42 43 44 45 46 47 48 49 50
000
ASUS43 KFGF 281631
RWRFGF
PRAIRIE TO PINES  WEATHER ROUNDUP
NATIONAL WEATHER SERVICE EASTERN NORTH DAKOTA/GRAND FORKS ND
1100 AM CDT THU APR 28 2016

 **SATELLITE DATA USED TO AUGMENT SKY COVER AT AUTOMATED STATIONS**
 *****  WEATHER ACROSS EASTERN NORTH DAKOTA  *****

CITY           SKY/WX    TMP DP  RH WIND       PRES   REMARKS
GRAND FORKS    PTSUNNY   52  20  28 E14       30.12F
GRAND FRKS AFB CLOUDY    51  19  28 E9G18     30.13S
DEVILS LAKE    MOSUNNY   47  21  35 NE13      30.14R
FARGO          CLOUDY    49  19  30 NE8       30.07S
WAHPETON ARPT  PTSUNNY   43  30  61 NE12      30.04F
$$

 ***** WEATHER ACROSS CENTRAL AND WESTERN NORTH DAKOTA  *****

CITY           SKY/WX    TMP DP  RH WIND       PRES   REMARKS
BISMARCK       CLOUDY    47  35  63 N8        30.10F
MINOT          MOSUNNY   50  20  30 N9        30.15S
JAMESTOWN      CLOUDY    49  27  42 NE9       30.06F
MINOT AFB      PTSUNNY   47  22  37 NE9       30.14F
GARRISON         N/A     47  25  42 E8        30.12S
WILLISTON      CLOUDY    47  24  40 E12       30.16R
DICKINSON      CLOUDY    39  31  72 NE3       30.08R
HETTINGER      CLOUDY    35  33  92 NE10      30.09R FOG
$$

 *****  OTHER AIRPORT OBSERVATIONS IN OUR AREA  *****

CITY           SKY/WX    TMP DP  RH WIND       PRES   REMARKS
WALHALLA       FAIR      46  27  46 N8        30.19S
GRAFTON AIRPOR FAIR      48  23  37 NE12      30.18R
VALLEY CITY AR FAIR      46  25  42 E14       30.09S
CANDO          FAIR      48  18  29 E13       30.17S
CAVALIER APRT  FAIR      46  25  42 NE9       30.18S
GWINNER        CLOUDY    46  34  61 NE13      30.05S
SHEYENNE NWR     N/A     48  30  49 NE9       29.95
ROLLA          FAIR      45  18  33 NE14      30.17S
 ***** THE ABOVE OBSERVATIONS ARE NON NWS ARE NOT QUALITY
       CONTROLLED AND MAY MIS-REPORT RAIN FOR SNOW...
$$

  *****  WEATHER ACROSS NORTHERN MINNESOTA  *****

CITY           SKY/WX    TMP DP  RH WIND       PRES   REMARKS
FLAG ISLAND    MOSUNNY   43  21  42 N10       30.19S
WARROAD        MOSUNNY   45  25  45 NE12G18   30.18F
ROSEAU         CLOUDY    46  27  46 NE14      30.17S
HALLOCK        PTSUNNY   48  14  25 NE13      30.16S
THF RVR FALLS  CLOUDY    46  19  34 E13       30.14S
BAUDETTE       CLOUDY    48  17  29 NE8       30.15F
WASKISH        CLOUDY    48  21  34 NE10      30.13S
CROOKSTON      CLOUDY    50  19  29 E12       30.13S
STEPHEN NDAWN    N/A     50  19  29 NE14        N/A
GREENBUSH NDAW   N/A     46  28  49 NE12        N/A
$$
  *****  WEATHER ACROSS CENTRAL AND WEST MINNESOTA  *****

CITY           SKY/WX    TMP DP  RH WIND       PRES   REMARKS
FOSSTON        PTSUNNY   46  19  34 NE10      30.10S
BEMIDJI        CLOUDY    47  20  34 E9G17     30.09S
PARK RAPIDS    CLOUDY    46  16  30 NE10      30.05R
ELBOW LAKE     CLOUDY    42  26  53 NE6       30.03R
WADENA         PTSUNNY   46  19  34 NE13      30.02R
DETROIT LAKES  CLOUDY    46  19  34 E12       30.05S
MOORHEAD       MOSUNNY   48  21  34 NE6       30.07S
FERGUS FALLS   CLOUDY    43  21  42 NE10      30.02S
MORRIS MN      CLOUDY    43  28  56 NE6       30.01R
STAPLES        CLOUDY    45  16  31 E13       30.02R
$$
  *****  WEATHER ELSEWHERE ACROSS MINNESOTA  *****

CITY           SKY/WX    TMP DP  RH WIND       PRES   REMARKS
DULUTH         PTSUNNY   43  24  47 E20       30.07R
INTRNTL FALLS  MOSUNNY   45  20  36 NE9       30.15S
ELY            CLOUDY    45  18  33 E10       30.11S
CLOQUET        CLOUDY    43  23  45 E13       30.06R
WHEATON        CLOUDY    45  28  53 NE12      30.05S
BRAINERD       CLOUDY    45  17  32 NE13G20   30.03R
HIBBING        PTSUNNY   44  21  40 E8        30.09R
ALEXANDRIA       N/A     43  24  47 NE12      30.01R
SAINT CLOUD    CLOUDY    40  28  62 VRB7      30.00R
MINNEAPOLIS    LGT RAIN  38  33  82 NE13      29.97S
$$

  *****  WEATHER ACROSS SOUTH DAKOTA  *****

CITY           SKY/WX    TMP DP  RH WIND       PRES   REMARKS
SIOUX FALLS    CLOUDY    40  37  89 NE8       29.95R
BROOKINGS      CLOUDY    35  33  92 NE13      29.96R
WATERTOWN      LGT SNOW  35  32  88 NE12      30.00R FOG
HURON          LGT RAIN  38  35  89 NE12      30.00R
SISSETON         N/A     43  28  55 E14       30.02R
ABERDEEN       CLOUDY    45  32  60 NE13      30.03S
MITCHELL       LGT RAIN  39  37  92 N13       29.99R
PIERRE         CLOUDY    39  35  86 N9        30.03R
MOBRIDGE       CLOUDY    42  36  79 N8        30.04S
RAPID CITY     CLOUDY    35  33  92 N8        30.04R
$$

  *****  SOME WEATHER IN NEARBY STATES *****

CITY           SKY/WX    TMP DP  RH WIND       PRES   REMARKS
GLASGOW MT     CLOUDY    44  30  57 E6        30.15S
GREAT FALLS MT CLOUDY    36  33  89 NE12      30.10S
CHEYENNE WY    CLOUDY    34  27  75 VRB5      29.96S
SCOTTSBLUFF NE CLOUDY    39  27  62 VRB5      30.03R
OMAHA NE       CLOUDY    49  43  80 NW16      29.90R
DES MOINES IA  CLOUDY    53  44  71 W7        29.83R
DAVENPORT IA   CLOUDY    49  46  90 E12       29.85R FOG
CHICAGO IL     CLOUDY    44  39  82 NE12G22   29.89R
EAU CLAIRE WI  LGT RAIN  38  34  85 NE9       30.00R
LA CROSSE WI   CLOUDY    45  32  60 NE10      29.93R
$$

  *****  SOME NATIONAL WEATHER *****

CITY           SKY/WX    TMP DP  RH WIND       PRES   REMARKS
LA GUARDIA NY  CLOUDY    56  22  26 NE7       30.07R
RALEIGH NC     PTSUNNY   73  64  73 CALM      29.92F
ATLANTA GA     PTSUNNY   76  63  64 SW7       29.98R
NEW ORLEANS LA PTSUNNY   82  74  76 SW8       29.92R
OKLAHOMA CITY  FAIR      63  44  50 NE9       29.96S
ALBUQUERQUE NM FAIR      64  22  20 S13G21    29.80F
SALT LAKE CITY LGT RAIN  49  36  61 CALM      29.71R
LOS ANGELES CA FAIR      59  47  64 S5        29.84S
BOISE ID       FAIR      50  42  74 W3        29.85S
SEATTLE WA     PTSUNNY   52  46  80 S5        30.12S
$$

*** WEATHER ACROSS MANITOBA...SASKATCHEWAN AND ONTARIO ***
                ***ONTARIO***

CITY           SKY/WX    TMP DP  RH WIND       PRES   REMARKS
GERALDTON      PTSUNNY   39  25  56 VRB6      30.18F
THUNDER BAY    PTSUNNY   43  25  49 E9        30.18F
SIOUX LOOKOUT  PTSUNNY   43  18  36 N2        30.22F
TORONTO        CLOUDY    45  21  39 E12G21    30.09S
BIG TROUT LK   CLOUDY    34  23  64 NE6       30.30S
PICKLE LAKE    CLOUDY    39  21  48 NE5       30.23S
DRYDEN         CLOUDY    45  12  26 NE9       30.20S
KENORA         PTSUNNY   46  12  25 NE9       30.20F
$$
                *** MANITOBA***

CITY           SKY/WX    TMP DP  RH WIND       PRES   REMARKS
BRANDON        CLOUDY    50  14  23 E14       30.22F
DAUPHIN        SUNNY     48  23  37 NE7       30.29S
ISLAND LAKE    MOSUNNY   39   9  28 N8        30.37S
PILOT MOUND      N/A     50  12  22 NE13        N/A
THE PAS        MOSUNNY   50  19  29 VRB5      30.35F
THOMPSON       MOSUNNY   46  18  31 E3        30.41F
WINNIPEG       PTSUNNY   48  16  27 NE13      30.22F
LYNN LAKE      PTSUNNY   45  21  39 S9        30.29F
CHURCHILL      MOSUNNY   27  21  80 N5        30.50F WCI  21
GILLAM         MOSUNNY   36  10  35 N3        30.45S
$$
                ***SASKATCHEWAN***

CITY           SKY/WX    TMP DP  RH WIND       PRES   REMARKS
ESTEVAN        CLOUDY    52  19  28 NE14      30.18S
KINDERSLEY     CLOUDY    50  30  46 CALM      30.20S
LLOYDMINSTER   PTSUNNY   54  34  47 SE14      30.20S
PRINCE ALBERT  CLOUDY    52  27  37 CALM      30.27F
REGINA         PTSUNNY   52  16  24 E12       30.22S
YORKTON        SUNNY     52  18  25 E9        30.26F
N. BATTLEFORD  SUNNY     55  25  30 E9        30.25S
LA RONGE       MOSUNNY   50  25  37 SE7       30.27
SASKATOON      PTSUNNY   52  27  37 SE5       30.26S
SWIFT CURRENT  NOT AVBL
$$
NOTE: THESE ARE AUTOMATED STATIONS WITH LIMITED QUALITY CONTROL
      "FAIR" INDICATES FEW OR NO CLOUDS BELOW 12,000 FEET WITH NO
      SIGNIFICANT WEATHER AND/OR OBSTRUCTIONS TO VISIBILITY.
      SKY/WX - SKY CONDITION AND SIGNIFICANT WEATHER.
      TMP - AIR TEMPERATURE.    DP   - DEWPOINT TEMPERATURE.
      RH  - RELATIVE HUMIDITY.  PRES - PRESSURE.
      HX  - HEAT INDEX.         WCI  - WIND CHILL INDEX.
$



USA.gov is the U.S. government's official web portal to all federal, state and local government web resources and services.